SCP
0 0 0 0 0 0 0 0 0 0 0 0 0 0 0 0 0 0 0 0 0 0 0 0 0 0 0 0 0 0 0 0 0 0 0 0 0 0
0 0 0 0 0 0 0 0 0 0 0 0 0 0 0 0 0 0 0 0 0 0 0 0 0 0 0 0 0 0 0 0 0 0 0 0 0 0
0 0 0 0 0 0 0 0 0 0 0 0 0 0 0 0 0 0 0 0 0 0 0 0 0 0 0 0 0 0 0 0 0 0 0 0 0 0
0 0 0 0 0 0 0 0 0 0 0 0 0 0 0 0 0 0 0 0 0 0 0 0 0 0 0 0 0 0 0 0 0 0 0 0 0 0
0 0 0 0 0 0 0 0 0 0 0 0 0 0 0 0 0 0 0 0 0 0 0 0 0 0 0 0 0 0 0 0 0 0 0 0 0 0
0 0 0 0 0 0 0 0 0 0 0 0 0 0 0 0 0 0 0 0 0 0 0 0 0 0 0 0 0 0 0 0 0 0 0 0 0 0
0 0 0 0 0 0 0 0 0 0 0 0 0 0 0 0 0 0 0 0 0 0 0 0 0 0 0 0 0 0 0 0 0 0 0 0 0 0
0 0 0 0 0 0 0 0 0 0 0 0 0 0 0 0 0 0 0 0 0 0 0 0 0 0 0 0 0 0 0 0 0 0 0 0 0 0
0 0 0 0 0 0 0 0 0 0 0 0 0 0 0 0 0 0 0 0 0 0 0 0 0 0 0 0 0 0 0 0 0 0 0 0 0 0
0 0 0 0 0 0 0 0 0 0 0 0 0 0 0 0 0 0 0 0 0 0 0 0 0 0 0 0 0 0 0 0 0 0 0 0 0 0
0 0 0 0 0 0 0 0 0 0 0 0 0 0 0 0 0 0 0 0 0 0 0 0 0 0 0 0 0 0 0 0 0 0 0 0 0 0
0 0 0 0 0 0 0 0 0 0 0 0 0 0 0 0 0 0 0 0 0 0 0 0 0 0 0 0 0 0 0 0 0 0 0 0 0 0
0 0 0 0 0 0 0 0 0 0 0 0 0 0 0 0 0 0 0 0 0 0 0 0 0 0 0 0 0 0 0 0 0 0 0 0 0 0
0 0 0 0 0 0 0 0 0 0 0 0 0 0 0 0 0 0 0 0 0 0 0 0 0 0 0 0 0 0 0 0 0 0 0 0 0 0
0 0 0 0 0 0 0 0 0 0 0 0 0 0 0 0 0 0 0 0 0 0 0 0 0 0 0 0 0 0 0 0 0 0 0 0 0 0
0 0 0 0 0 0 0 0 0 0 0 0 0 0 0 0 0 0 0 0 0 0 0 0 0 0 0 0 0 0 0 0 0 0 0 0 0 0
0 0 0 0 0 0 0 0 0 0 0 0 0 0 0 0 0 0 0 0 0 0 0 0 0 0 0 0 0 0 0 0 0 0 0 0 0 0
0 0 0 0 0 0 0 0 0 0 0 0 0 0 0 0 0 0 0 0 0 0 0 0 0 0 0 0 0 0 0 0 0 0 0 0 0 0
0 0 0 0 0 0 0 0 0 0 0 0 0 0 0 0 0 0 0 0 0 0 0 0 0 0 0 0 0 0 0 0 0 0 0 0 0 0
0 0 0 0 0 0 0 0 0 0 0 0 0 0 0 0 0 0 0 0 0 0 0 0 0 0 0 0 0 0 0 0 0 0 0 0 0 0
0 0 0 0 0 0 0 0 0 0 0 0 0 0 0 0 0 0 0 0 0 0 0 0 0 0 0 0 0 0 0 0 0 0 0 0 0 0
0 0 0 0 0 0 0 0 0 0 0 0 0 0 0 0 0 0 0 0 0 0 0 0 0 0 0 0 0 0 0 0 0 0 0 0 0 0
0 0 0 0 0 0 0 0 0 0 0 0 0 0 0 0 0 0 0 0 0 0 0 0 0 0 0 0 0 0 0 0 0 0 0 0 0 0
Wind_Speed
4 4 3 3 2 2 2 2 2 1 2 3 1 2 3 3 7 5 5 9 10 10 10 10 11 12 12 13 14 14 14 14 14 14 14 14 15 16
4 5 4 3 2 2 2 2 2 3 3 3 2 2 3 5 6 6 5 9 8 8 8 8 9 10 11 11 12 13 13 13 13 13 13 12 12 12
5 5 6 5 3 3 2 2 2 2 3 3 1 1 3 6 6 5 5 5 4 6 6 6 8 9 9 10 11 11 12 12 11 11 11 11 10 10
6 6 6 5 5 4 3 3 3 3 3 4 2 2 2 7 8 7 5 5 4 6 6 6 6 7 8 9 9 10 10 10 10 10 10 10 10 9
6 6 6 5 6 5 5 4 3 3 3 3 3 2 2 5 7 6 6 4 4 6 7 7 6 6 7 7 8 8 9 9 9 10 10 9 9 8
7 6 6 6 7 7 5 5 4 4 4 3 3 2 3 4 6 7 5 3 3 4 6 6 9 10 8 8 9 9 10 10 10 10 10 10 9 9
7 6 7 10 11 9 6 6 6 5 4 4 4 3 4 7 7 5 6 5 3 2 4 3 4 5 5 7 9 11 11 11 11 11 11 11 11 10
7 7 8 10 12 13 14 12 10 8 7 5 4 5 6 6 6 8 8 6 4 3 3 3 3 5 4 3 7 11 11 12 12 13 13 13 12 12
8 7 9 10 10 7 10 13 13 14 12 7 7 6 7 8 9 10 9 7 4 6 5 3 3 3 3 4 8 10 12 12 13 14 14 14 13 13
9 9 9 9 9 7 6 7 7 8 10 7 6 6 6 6 9 9 9 7 5 4 4 4 3 3 3 4 7 10 11 12 13 14 15 14 14 13
10 10 11 10 13 13 8 7 7 6 8 9 8 7 7 9 9 8 10 9 7 4 2 5 4 3 3 3 5 9 10 12 13 14 15 15 15 13
7 8 13 13 13 14 9 8 8 7 6 6 5 6 6 8 12 11 11 11 8 5 4 5 5 5 4 2 3 3 6 9 11 13 14 14 12 8
6 6 6 12 13 13 11 8 9 7 6 7 6 5 5 6 7 7 8 9 9 5 8 7 6 4 4 4 2 2 3 4 4 6 9 11 10 8
6 5 6 10 11 12 10 9 11 9 5 6 5 6 6 6 6 7 8 6 4 6 11 9 7 7 6 5 4 3 2 2 3 4 3 7 7 8
4 6 7 8 8 7 10 11 9 6 5 5 6 6 6 6 6 6 7 6 5 6 9 6 9 9 6 6 7 6 4 3 3 4 3 3 3 4
3 2 3 4 4 5 5 6 5 5 6 5 6 5 4 5 5 6 7 8 7 5 5 5 9 12 6 5 7 7 6 8 7 5 4 3 3 4
2 1 1 1 2 2 2 3 3 4 5 4 4 4 5 5 5 5 6 7 6 8 7 4 5 4 5 8 8 7 6 5 6 6 5 4 3 4
2 2 2 2 3 4 4 3 4 5 5 5 4 5 5 6 5 5 6 7 8 7 7 7 8 6 4 2 4 9 8 6 6 6 4 4 4 4
2 2 3 3 3 3 4 4 5 5 5 5 5 5 5 5 6 6 7 7 7 8 8 9 10 9 7 6 5 8 10 9 8 7 5 4 5 5
3 3 4 3 3 3 4 4 4 4 4 4 5 5 5 5 6 7 7 7 7 7 7 8 10 9 8 8 6 6 11 10 9 9 6 3 3 4
4 5 5 4 4 4 4 4 5 5 5 5 5 5 5 5 6 7 7 10 8 8 10 10 8 8 6 7 6 5 6 10 11 9 9 6 4 3
5 5 5 5 5 5 5 4 4 5 5 5 6 6 6 6 7 8 8 9 8 8 8 7 8 7 5 7 7 7 8 8 8 10 12 10 8 8
6 6 5 5 5 5 5 5 6 5 5 6 6 6 7 6 6 7 8 8 8 8 8 8 8 6 5 5 6 6 9 9 6 5 3 3 7 11
Wind_Direction
272 272 266 260 246 233 219 204 187 215 258 261 225 184 162 148 158 154 150 169 174 180 188 195 198 201 201 202 204 206 208 210 212 215 218 222 224 224
268 267 266 261 254 239 230 223 201 197 224 246 235 171 151 137 128 124 124 135 144 159 175 189 196 200 202 201 203 204 207 209 212 215 216 218 219 219
280 265 261 258 257 246 232 224 217 202 225 255 254 146 128 138 121 111 109 107 115 134 154 178 192 197 199 199 200 202 204 205 205 205 206 206 205 205
271 266 261 257 251 247 234 228 228 221 213 233 247 169 146 151 137 128 118 111 106 116 131 150 167 182 188 192 194 193 192 192 192 190 188 185 183 184
253 253 255 249 247 242 233 225 220 228 215 215 228 197 139 152 136 120 113 107 104 107 104 110 126 138 151 165 170 171 172 171 170 168 165 163 162 162
251 244 245 240 239 235 232 225 213 216 214 210 217 196 157 157 147 139 133 118 111 101 93 92 100 100 112 129 138 143 145 143 142 141 141 140 138 137
259 251 249 251 248 235 226 218 208 208 208 208 211 190 171 170 164 150 144 134 101 111 108 88 86 80 78 99 119 129 132 133 133 132 130 128 126 125
256 257 258 262 259 248 236 224 209 202 205 205 210 202 189 178 161 154 150 152 153 153 121 92 78 77 55 65 111 121 125 127 126 125 123 121 119 118
240 246 260 258 248 239 236 234 225 217 206 198 207 209 194 181 170 166 167 160 150 151 126 97 70 69 48 67 105 116 121 123 123 121 119 116 115 114
233 232 237 247 248 234 228 230 225 222 215 208 207 209 203 186 179 171 157 131 108 128 118 112 93 71 51 54 85 110 117 120 120 120 118 115 112 109
236 234 231 234 236 227 217 220 225 231 223 210 206 200 190 180 168 154 153 154 151 150 117 116 119 97 62 46 70 98 109 117 120 122 121 117 113 106
242 237 233 228 226 221 211 205 214 216 199 194 198 194 189 185 177 175 171 169 157 149 150 125 132 130 108 63 55 82 97 104 115 121 123 122 119 111
241 233 227 224 224 220 211 205 212 202 190 187 188 186 183 188 191 187 183 178 166 154 158 139 137 131 124 126 105 91 106 121 115 119 125 128 128 126
240 232 224 216 217 214 210 210 207 196 181 180 182 189 193 192 195 191 186 183 164 151 158 148 139 149 136 133 142 128 120 135 133 135 133 135 127 119
242 233 221 218 215 210 204 196 187 180 176 181 187 193 194 190 181 180 174 154 120 135 154 154 144 147 142 144 148 149 150 174 170 153 152 152 150 141
254 238 208 203 194 182 178 180 171 175 180 186 187 186 175 175 182 177 175 165 146 137 146 146 151 151 141 142 149 157 158 164 172 172 158 159 162 164
246 220 194 174 168 159 157 162 164 170 180 183 179 172 172 177 181 174 168 162 159 159 155 140 131 118 123 144 149 157 151 152 162 162 153 157 180 180
246 228 220 204 191 179 175 175 177 183 182 179 176 174 175 178 176 168 167 169 167 163 159 152 143 125 98 62 147 159 160 158 156 159 147 150 179 189
243 242 236 221 206 191 182 183 190 191 179 173 175 174 175 173 169 170 173 171 167 163 161 160 162 157 158 166 182 175 167 161 159 166 170 158 174 187
233 238 240 234 216 201 194 192 192 185 179 178 176 173 172 170 170 172 174 172 165 158 160 168 175 176 176 163 156 176 177 166 165 172 171 152 141 161
237 237 236 231 222 209 204 197 190 185 182 179 180 178 174 167 170 173 172 168 163 166 175 181 175 147 111 114 124 144 170 179 170 167 162 151 146 150
240 240 237 230 221 212 204 198 194 190 184 180 179 178 176 172 171 171 172 173 174 173 175 161 142 146 154 164 160 155 159 168 178 175 170 167 162 177
235 235 236 233 222 207 200 196 192 193 190 184 179 177 175 175 172 173 173 173 172 170 163 158 158 164 173 167 154 150 156 161 157 156 172 206 199 195